When you browse on this site, cookies collect data to enhance your experience and personalize the content and advertising you see.
Visit our Privacy Policy to learn more. By continuing to use the site, you agree to this use of cookies and data.
  • In Romania
  • List of Countries
  • For 7 days
  • Water Temperature
  • Satellite Maps
  • Weather Map
  • Weather Widgets
  • user-avatar
    Login

    Hourly Weather Chester

    Today, 26 June, Wednesday

    Time Temperature Precipitation Wind Pressure Humidity
    00:00 +16°C° 0 mm 2 mps 769 mmHg 85%
    01:00 +15°C° 0 mm 2 mps 769 mmHg 86%
    02:00 +15°C° 0 mm 2 mps 769 mmHg 86%
    03:00 +15°C° 0 mm 1 mps 769 mmHg 87%
    04:00 +15°C° 0 mm 2 mps 769 mmHg 86%
    05:00 +15°C° 0 mm 2 mps 770 mmHg 86%
    06:00 +15°C° 0 mm 2 mps 770 mmHg 86%
    07:00 +15°C° 0 mm 2 mps 770 mmHg 85%
    08:00 +16°C° 0 mm 2 mps 770 mmHg 83%
    09:00 +16°C° 0 mm 2 mps 771 mmHg 81%
    10:00 +17°C° 0 mm 2 mps 771 mmHg 78%
    11:00 +19°C° 0 mm 2 mps 772 mmHg 75%
    12:00 +20°C° 0 mm 2 mps 772 mmHg 71%
    13:00 +20°C° 0 mm 2 mps 772 mmHg 71%
    14:00 +20°C° 0 mm 2 mps 771 mmHg 72%
    15:00 +21°C° 0 mm 2 mps 771 mmHg 72%
    16:00 +21°C° 0 mm 3 mps 771 mmHg 73%
    17:00 +21°C° 0 mm 3 mps 771 mmHg 75%
    18:00 +20°C° 0 mm 3 mps 771 mmHg 76%
    19:00 +19°C° 0 mm 3 mps 772 mmHg 80%
    20:00 +18°C° 0 mm 3 mps 772 mmHg 84%
    21:00 +16°C° 0 mm 3 mps 772 mmHg 87%
    22:00 +15°C° 0 mm 2 mps 772 mmHg 88%
    23:00 +14°C° 0 mm 2 mps 773 mmHg 89%

    Tomorrow, 27 June, Thursday

    Time Temperature Precipitation Wind Pressure Humidity
    00:00 +13°C° 0 mm 2 mps 773 mmHg 90%
    01:00 +12°C° 0 mm 2 mps 773 mmHg 89%
    02:00 +12°C° 0 mm 1 mps 773 mmHg 87%
    03:00 +11°C° 0 mm 1 mps 772 mmHg 86%
    04:00 +12°C° 0 mm 1 mps 772 mmHg 83%
    05:00 +12°C° 0 mm 1 mps 772 mmHg 79%
    06:00 +13°C° 0 mm 1 mps 772 mmHg 76%
    07:00 +15°C° 0 mm 2 mps 772 mmHg 71%
    08:00 +16°C° 0 mm 2 mps 772 mmHg 66%
    09:00 +18°C° 0 mm 3 mps 772 mmHg 62%
    10:00 +19°C° 0 mm 3 mps 772 mmHg 62%
    11:00 +21°C° 0 mm 4 mps 772 mmHg 62%
    12:00 +22°C° 0 mm 4 mps 772 mmHg 63%
    13:00 +22°C° 0 mm 4 mps 772 mmHg 63%
    14:00 +23°C° 0 mm 5 mps 772 mmHg 64%
    15:00 +23°C° 0 mm 5 mps 771 mmHg 64%
    16:00 +23°C° 0 mm 5 mps 771 mmHg 67%
    17:00 +22°C° 0 mm 5 mps 771 mmHg 69%
    18:00 +22°C° 0 mm 5 mps 770 mmHg 72%
    19:00 +20°C° 0 mm 5 mps 770 mmHg 74%
    20:00 +18°C° 0 mm 4 mps 771 mmHg 77%
    21:00 +15°C° 0 mm 4 mps 771 mmHg 79%
    22:00 +14°C° 0 mm 4 mps 771 mmHg 79%
    23:00 +14°C° 0 mm 3 mps 771 mmHg 80%

    Day after tomorrow, 28 June, Friday

    Time Temperature Precipitation Wind Pressure Humidity
    00:00 +13°C° 0 mm 3 mps 770 mmHg 80%
    01:00 +12°C° 0 mm 3 mps 770 mmHg 81%
    02:00 +12°C° 0 mm 3 mps 770 mmHg 83%
    03:00 +11°C° 0 mm 3 mps 770 mmHg 84%
    04:00 +12°C° 0 mm 3 mps 769 mmHg 83%
    05:00 +12°C° 0 mm 4 mps 769 mmHg 82%
    06:00 +13°C° 0 mm 4 mps 769 mmHg 82%
    07:00 +14°C° 0 mm 4 mps 769 mmHg 78%
    08:00 +16°C° 0 mm 5 mps 768 mmHg 75%
    09:00 +17°C° 0 mm 5 mps 768 mmHg 71%
    10:00 +20°C° 0 mm 6 mps 768 mmHg 70%
    11:00 +21°C° 0 mm 6 mps 767 mmHg 69%
    12:00 +22°C° 0 mm 6 mps 767 mmHg 68%
    13:00 +23°C° 0 mm 6 mps 766 mmHg 68%
    14:00 +23°C° 0 mm 6 mps 766 mmHg 68%
    15:00 +24°C° 0 mm 6 mps 766 mmHg 68%
    16:00 +23°C° 0 mm 6 mps 765 mmHg 71%
    17:00 +23°C° 0 mm 6 mps 765 mmHg 74%
    18:00 +23°C° 0 mm 6 mps 764 mmHg 76%
    19:00 +21°C° 0 mm 6 mps 764 mmHg 79%
    20:00 +20°C° 0 mm 5 mps 764 mmHg 81%
    21:00 +17°C° 0 mm 5 mps 764 mmHg 84%
    22:00 +16°C° 0 mm 5 mps 764 mmHg 83%
    23:00 +15°C° 0 mm 4 mps 764 mmHg 83%

    29 June, Saturday

    Time Temperature Precipitation Wind Pressure Humidity
    00:00 +14°C° 0 mm 4 mps 764 mmHg 83%
    01:00 +14°C° 0 mm 4 mps 763 mmHg 83%
    02:00 +13°C° 0 mm 4 mps 763 mmHg 84%
    03:00 +13°C° 0 mm 4 mps 762 mmHg 85%
    04:00 +13°C° 0 mm 4 mps 762 mmHg 84%
    05:00 +14°C° 0 mm 4 mps 761 mmHg 84%
    06:00 +14°C° 0 mm 4 mps 761 mmHg 83%
    07:00 +17°C° 0 mm 4 mps 761 mmHg 82%
    08:00 +18°C° 0 mm 4 mps 761 mmHg 82%
    09:00 +19°C° 0 mm 4 mps 760 mmHg 81%
    10:00 +20°C° 0 mm 4 mps 760 mmHg 81%
    11:00 +21°C° 0 mm 3 mps 759 mmHg 81%
    12:00 +22°C° 0 mm 3 mps 759 mmHg 81%
    13:00 +23°C° 0 mm 2 mps 758 mmHg 82%
    14:00 +21°C° 0 mm 2 mps 758 mmHg 83%
    15:00 +21°C° 0 mm 2 mps 758 mmHg 84%
    16:00 +23°C° 0 mm 2 mps 758 mmHg 81%
    17:00 +23°C° 0 mm 2 mps 757 mmHg 78%
    18:00 +23°C° 0 mm 2 mps 757 mmHg 75%
    19:00 +20°C° 0 mm 3 mps 757 mmHg 76%
    20:00 +18°C° 0 mm 3 mps 758 mmHg 78%
    21:00 +16°C° 0 mm 3 mps 758 mmHg 79%
    22:00 +14°C° 0 mm 3 mps 758 mmHg 82%
    23:00 +14°C° 0 mm 3 mps 758 mmHg 85%

    30 June, Sunday

    Time Temperature Precipitation Wind Pressure Humidity
    00:00 +14°C° 0 mm 3 mps 758 mmHg 88%
    01:00 +14°C° 0 mm 3 mps 758 mmHg 87%
    02:00 +14°C° 0 mm 3 mps 758 mmHg 86%
    03:00 +14°C° 0 mm 3 mps 758 mmHg 86%
    04:00 +14°C° 0 mm 3 mps 758 mmHg 85%
    05:00 +16°C° 0 mm 3 mps 759 mmHg 84%
    06:00 +16°C° 0 mm 3 mps 759 mmHg 84%
    07:00 +17°C° 0 mm 3 mps 759 mmHg 80%
    08:00 +18°C° 0 mm 3 mps 759 mmHg 76%
    09:00 +19°C° 0 mm 3 mps 760 mmHg 72%
    10:00 +20°C° 0 mm 4 mps 760 mmHg 70%
    11:00 +20°C° 0 mm 4 mps 760 mmHg 68%
    12:00 +21°C° 0 mm 4 mps 760 mmHg 66%
    13:00 +21°C° 0 mm 4 mps 760 mmHg 65%
    14:00 +21°C° 0 mm 5 mps 760 mmHg 63%
    15:00 +21°C° 0 mm 5 mps 760 mmHg 62%
    16:00 +21°C° 0 mm 5 mps 760 mmHg 65%
    17:00 +20°C° 0 mm 5 mps 760 mmHg 68%
    18:00 +19°C° 0 mm 4 mps 760 mmHg 71%
    19:00 +18°C° 0 mm 4 mps 760 mmHg 73%
    20:00 +17°C° 0 mm 4 mps 761 mmHg 75%
    21:00 +14°C° 0 mm 4 mps 761 mmHg 77%
    22:00 +13°C° 0 mm 3 mps 761 mmHg 79%
    23:00 +12°C° 0 mm 3 mps 762 mmHg 81%

    1 July, Monday

    Time Temperature Precipitation Wind Pressure Humidity
    00:00 +11°C° 0 mm 3 mps 762 mmHg 83%
    01:00 +11°C° 0 mm 3 mps 762 mmHg 82%
    02:00 +11°C° 0 mm 4 mps 762 mmHg 80%
    03:00 +11°C° 0 mm 4 mps 762 mmHg 79%
    04:00 +11°C° 0 mm 4 mps 762 mmHg 78%
    05:00 +12°C° 0 mm 5 mps 762 mmHg 78%
    06:00 +12°C° 0 mm 5 mps 763 mmHg 77%
    07:00 +13°C° 0 mm 6 mps 763 mmHg 73%
    08:00 +14°C° 0 mm 6 mps 763 mmHg 69%
    09:00 +15°C° 0 mm 7 mps 763 mmHg 65%
    10:00 +16°C° 0 mm 7 mps 763 mmHg 64%
    11:00 +16°C° 0 mm 7 mps 763 mmHg 63%
    12:00 +17°C° 0 mm 8 mps 764 mmHg 62%
    13:00 +17°C° 0.1 mm 8 mps 764 mmHg 63%
    14:00 +17°C° 0.1 mm 7 mps 764 mmHg 64%
    15:00 +17°C° 0.1 mm 7 mps 764 mmHg 65%
    16:00 +16°C° 0 mm 7 mps 764 mmHg 66%
    17:00 +16°C° 0 mm 6 mps 765 mmHg 67%
    18:00 +16°C° 0 mm 5 mps 765 mmHg 69%
    19:00 +14°C° 0 mm 5 mps 766 mmHg 73%
    20:00 +13°C° 0 mm 4 mps 766 mmHg 76%
    21:00 +12°C° 0 mm 3 mps 767 mmHg 80%
    22:00 +11°C° 0 mm 3 mps 767 mmHg 81%
    23:00 +11°C° 0 mm 3 mps 767 mmHg 83%
    Show more